Weather History for Hugo, OK

Change the Weather History Date:

Monday, May 6, 2013

  Actual Average Record
Temperature  
Mean Temperature 60 °F -  
Max Temperature 76 °F 80 °F 88 °F (2014)
Min Temperature 45 °F 57 °F 45 °F (2013)
Degree Days  
Heating Degree Days 5    
Growing Degree Days 10 (Base 50)    
Moisture  
Dew Point 48 °F    
Average Humidity 67    
Maximum Humidity 96    
Minimum Humidity 37    
Precipitation  
Precipitation 0.00 in - - ()
Sea Level Pressure  
Sea Level Pressure 30.04 in    
Wind  
Wind Speed - (North)    
Max Wind Speed -    
Max Gust Speed -    
Visibility 10 miles    
Events      
Averages and records for this station are not official NWS values.
T = Trace of Precipitation, MM = Missing Value Source: NWS Daily Summary

Daily Weather History Graph

Daily Weather History Graph

Search for Another Location

Airport:

Trip Planner

Search our weather history database for the weather conditions in past years. The results will help you decide how hot, cold, wet, or windy it might be!

Date:

Astronomy

May. 06, 2013 Rise Set
Actual Time 6:27 AM CDT 8:10 PM CDT
Civil Twilight 6:00 AM CDT 8:37 PM CDT
Nautical Twilight 5:28 AM CDT 9:09 PM CDT
Astronomical Twilight 4:53 AM CDT 9:44 PM CDT
Moon 4:21 AM CDT (5/6) 5:18 PM CDT (5/6)
Length of Visible Light 14h 36m
Length of Day
13h 42m
Waning Crescent, 11% of the Moon is Illuminated
May 6
Waning Crescent
May 9
New
May 17
First Quarter
May 24
Full
May 31
Last Quarter

Hourly Weather History & Observations

Time (CDT) Temp. Dew Point Humidity Pressure Visibility Wind Dir Wind Speed Gust Speed Precip Events Conditions
12:15 AM 50.0 °F 44.8 °F 82% 30.05 in 10.0 mi North - - N/A   Clear
12:35 AM 49.5 °F 44.8 °F 84% 30.05 in 10.0 mi North - - N/A   Clear
12:55 AM 49.1 °F 44.8 °F 85% 30.04 in 10.0 mi North - - N/A   Clear
1:15 AM 49.8 °F 45.1 °F 84% 30.04 in 10.0 mi North - - N/A   Clear
1:35 AM 48.7 °F 44.8 °F 86% 30.04 in 10.0 mi North - - N/A   Clear
1:55 AM 48.9 °F 45.0 °F 86% 30.04 in 10.0 mi North - - N/A   Clear
2:15 AM 47.3 °F 44.8 °F 91% 30.04 in 10.0 mi North - - N/A   Clear
2:35 AM 47.5 °F 44.8 °F 90% 30.04 in 10.0 mi North - - N/A   Clear
2:55 AM 48.4 °F 45.0 °F 88% 30.04 in 10.0 mi North - - N/A   Clear
3:15 AM 45.9 °F 43.9 °F 93% 30.05 in 10.0 mi North - - N/A   Clear
3:35 AM 46.4 °F 44.1 °F 92% 30.04 in 10.0 mi North - - N/A   Clear
3:55 AM 45.7 °F 43.9 °F 93% 30.04 in 10.0 mi North - - N/A   Clear
4:15 AM 46.0 °F 44.4 °F 94% 30.04 in 10.0 mi North - - N/A   Clear
4:35 AM 45.7 °F 44.2 °F 95% 30.04 in 10.0 mi North - - N/A   Clear
4:55 AM 45.7 °F 44.2 °F 95% 30.04 in 10.0 mi North - - N/A   Clear
5:15 AM 46.2 °F 44.8 °F 95% 30.05 in 10.0 mi North - - N/A   Clear
5:35 AM 46.0 °F 44.6 °F 95% 30.04 in 10.0 mi North - - N/A   Clear
5:55 AM 46.4 °F 44.8 °F 94% 30.04 in 10.0 mi North - - N/A   Clear
6:15 AM 46.6 °F 45.1 °F 95% 30.05 in 10.0 mi North - - N/A   Clear
6:35 AM 45.9 °F 44.6 °F 95% 30.06 in 10.0 mi North - - N/A   Clear
6:55 AM 45.7 °F 44.6 °F 96% 30.06 in 10.0 mi North - - N/A   Clear
7:15 AM 46.6 °F 45.3 °F 95% 30.07 in 10.0 mi North - - N/A   Clear
7:35 AM 48.6 °F 46.8 °F 93% 30.07 in 10.0 mi North - - N/A   Clear
7:55 AM 51.3 °F 48.2 °F 89% 30.08 in 10.0 mi North - - N/A   Clear
8:15 AM 52.0 °F 48.4 °F 88% 30.08 in 10.0 mi North - - N/A   Clear
8:35 AM 53.1 °F 49.3 °F 87% 30.09 in 10.0 mi North - - N/A   Clear
8:55 AM 55.0 °F 49.5 °F 81% 30.09 in 10.0 mi North - - N/A   Scattered Clouds
9:15 AM 56.3 °F 49.6 °F 78% 30.09 in 10.0 mi North - - N/A   Scattered Clouds
9:35 AM 57.2 °F 49.8 °F 76% 30.10 in 10.0 mi North - - N/A   Scattered Clouds
9:55 AM 59.4 °F 50.0 °F 71% 30.10 in 10.0 mi North - - N/A   Clear
10:15 AM 61.0 °F 50.2 °F 68% 30.10 in 10.0 mi North - - N/A   Clear
10:35 AM 61.9 °F 51.4 °F 69% 30.10 in 10.0 mi North - - N/A   Scattered Clouds
10:55 AM 63.1 °F 50.7 °F 64% 30.09 in 10.0 mi North - - N/A   Unknown
11:15 AM 65.1 °F 52.0 °F 62% 30.08 in 10.0 mi North - - N/A   Unknown
11:35 AM 66.4 °F 51.8 °F 59% 30.08 in 10.0 mi North - - N/A   Unknown
11:55 AM 67.6 °F 51.1 °F 55% 30.08 in 10.0 mi North - - N/A   Unknown
12:15 PM 68.7 °F 51.4 °F 54% 30.08 in 10.0 mi North - - N/A   Clear
12:35 PM 69.4 °F 50.5 °F 51% 30.08 in 10.0 mi North - - N/A   Clear
12:55 PM 70.5 °F 50.9 °F 50% 30.07 in 10.0 mi North - - N/A   Clear
1:15 PM 70.9 °F 51.1 °F 49% 30.06 in 10.0 mi North - - N/A   Clear
1:35 PM 71.6 °F 50.5 °F 47% 30.06 in 10.0 mi North - - N/A   Clear
1:55 PM 72.5 °F 50.5 °F 46% 30.05 in 10.0 mi North - - N/A   Clear
2:15 PM 72.3 °F 49.8 °F 45% 30.04 in 10.0 mi North - - N/A   Clear
2:35 PM 73.6 °F 50.0 °F 43% 30.04 in 10.0 mi North - - N/A   Scattered Clouds
2:55 PM 73.8 °F 49.3 °F 42% 30.03 in 10.0 mi North - - N/A   Scattered Clouds
3:15 PM 74.3 °F 48.9 °F 41% 30.02 in 10.0 mi North - - N/A   Clear
3:35 PM 75.2 °F 49.3 °F 40% 30.01 in 10.0 mi North - - N/A   Scattered Clouds
3:55 PM 75.6 °F 50.2 °F 41% 30.00 in 10.0 mi North - - N/A   Scattered Clouds
4:15 PM 74.1 °F 49.1 °F 41% 29.99 in 10.0 mi North - - N/A   Scattered Clouds
4:35 PM 74.5 °F 50.0 °F 42% 29.99 in 10.0 mi North - - N/A   Scattered Clouds
4:55 PM 75.7 °F 49.3 °F 39% 29.98 in 10.0 mi North - - N/A   Clear
5:15 PM 74.3 °F 47.8 °F 39% 29.98 in 10.0 mi North - - N/A   Clear
5:55 PM 75.6 °F 50.0 °F 41% 29.97 in 10.0 mi North - - N/A   Clear
6:15 PM 75.2 °F 47.5 °F 37% 29.98 in 10.0 mi North - - N/A   Clear
6:35 PM 74.8 °F 47.1 °F 37% 29.98 in 10.0 mi North - - N/A   Clear
6:55 PM 74.3 °F 47.7 °F 39% 29.98 in 10.0 mi North - - N/A   Clear
7:15 PM 72.9 °F 48.2 °F 42% 29.98 in 10.0 mi North - - N/A   Clear
7:35 PM 71.6 °F 47.5 °F 42% 29.99 in 10.0 mi North - - N/A   Clear
7:55 PM 70.2 °F 47.8 °F 45% 30.00 in 10.0 mi North - - N/A   Clear
8:15 PM 68.7 °F 48.2 °F 48% 30.01 in 10.0 mi North - - N/A   Clear
8:35 PM 66.4 °F 47.7 °F 51% 30.01 in 10.0 mi North - - N/A   Clear
8:55 PM 66.2 °F 47.3 °F 51% 30.02 in 10.0 mi North - - N/A   Clear
9:15 PM 65.5 °F 46.8 °F 51% 30.02 in 10.0 mi North - - N/A   Clear
9:35 PM 64.8 °F 46.6 °F 52% 30.03 in 10.0 mi North - - N/A   Clear
9:55 PM 63.3 °F 47.3 °F 56% 30.03 in 10.0 mi North - - N/A   Clear
10:15 PM 62.1 °F 47.5 °F 59% 30.03 in 10.0 mi North - - N/A   Clear
10:35 PM 61.5 °F 48.2 °F 62% 30.03 in 10.0 mi North - - N/A   Clear
10:55 PM 61.0 °F 48.2 °F 63% 30.03 in 10.0 mi North - - N/A   Clear
11:15 PM 60.3 °F 48.4 °F 65% 30.04 in 10.0 mi North - - N/A   Clear
11:35 PM 59.4 °F 48.6 °F 67% 30.03 in 10.0 mi North - - N/A   Clear
11:55 PM 58.3 °F 48.4 °F 70% 30.03 in 10.0 mi North - - N/A   Clear